[[{"header":{"parameterUnit":"m.s-1","parameterCategory":1,"la1":30.2991,"la2":30.254,"lo1":-89.0895,"lo2":-89.0444,"dy":0.0017,"dx":0.0017,"nx":28,"ny":28,"refTime":"2025-07-31T03:00:00:Z","depth":0,"parameterNumber":2,"parameterNumberName":"U-component_of_WINDS"},"data":[0,0,0,0,0,0,0,0,0,0,0,0,0,0,0,0,0,0,0,0,0,0,0,0,0,0,0,0,0,0,0,0,0,0,0,0,0,0,0,0,0,0,0,0,0,0,0,0,0,0,0,0,0,0,0,0,0,0,1.0768,1.0767,0,1.0692,1.0691,1.069,1.0617,1.0616,1.0615,1.0614,1.0535,1.0533,1.0532,0,0,0,0,0,0,0,0,0,0,0,0,0,1.0849,1.0848,1.0768,1.0767,1.0766,1.0692,1.0691,1.069,1.0617,1.0616,1.0615,1.0614,1.0535,1.0534,1.0532,0,0,0,0,0,0,0,0,0,0,0,0,0,1.0797,1.0847,1.0768,1.0721,1.0716,1.0692,1.0691,1.0689,1.0617,1.0616,1.0615,1.0613,1.0536,1.0534,1.0532,1.0548,0,0,1.0526,1.0525,0,0,0,0,0,0,0,0,1.08,1.0794,1.0729,1.0724,1.0718,1.0662,1.069,1.0642,1.0618,1.0655,1.0614,1.0613,1.0578,1.0573,1.0561,1.0544,1.0541,1.0526,1.0525,1.0524,1.0523,0,0,0,0,0,0,0,1.0804,1.0797,1.0737,1.0728,1.0722,1.0703,1.0694,1.0681,1.0625,1.0651,1.0646,1.0638,1.0575,1.0563,1.0559,1.054,1.0526,1.0524,1.0523,1.0522,1.0531,1.0533,0,0,0,0,0,0,1.0815,1.0801,1.074,1.0735,1.0757,1.0703,1.0693,1.0682,1.0625,1.0615,1.0639,1.0635,1.0567,1.0561,1.0556,1.0571,1.0524,1.0522,1.0521,1.053,1.0532,1.0533,0,0,0,0,0,0,1.0817,1.081,1.0743,1.0766,1.0756,1.0703,1.0691,1.0681,1.0669,1.0616,1.0605,1.0638,1.0566,1.0559,1.055,1.0567,1.0521,1.052,1.0528,1.053,1.0532,1.0601,0,0,0,0,0,0,1.082,1.0811,1.0817,1.0767,1.0756,1.074,1.0692,1.068,1.0666,1.066,1.0612,1.0602,1.0564,1.0554,1.0549,1.0563,1.0518,1.0527,1.0529,1.0532,1.0597,1.0605,1.0612,0,0,0,0,0,1.0823,1.0839,1.0818,1.0811,1.0762,1.0741,1.0734,1.069,1.0668,1.0673,1.0639,1.0604,1.0566,1.0553,1.0547,1.0562,1.0525,1.0529,1.0532,1.0593,1.0603,1.0612,0,0,0,0,0,0,1.0892,1.0832,1.0808,1.0809,1.078,1.0728,1.0734,1.0702,1.068,1.0674,1.0621,1.0611,1.0609,1.0584,1.0571,1.0574,1.0541,1.0543,1.059,1.0599,1.0607,1.0612,1.0517,0,0,0,0,0,1.0908,1.0896,1.0844,1.085,1.0837,1.0788,1.0777,1.0746,1.0714,1.0702,1.0667,1.0637,1.0619,1.0608,1.0587,1.0593,1.0581,1.06,1.0608,1.0614,1.0616,1.0617,1.0625,1.0543,1.0543,1.0543,0,0,1.094,1.0905,1.0901,1.0863,1.0837,1.0826,1.0778,1.0768,1.0759,1.07,1.0691,1.0664,1.0627,1.0626,1.0624,1.0606,1.0636,1.0618,1.0623,1.0622,1.0621,1.0629,1.0636,1.0545,1.0545,1.0545,0,0,1.0992,1.0965,1.0967,1.0942,1.0904,1.0872,1.0872,1.0825,1.0805,1.0795,1.0751,1.0739,1.0708,1.0683,1.0667,1.071,1.0677,1.0705,1.0744,1.0746,1.0752,1.0758,1.0773,1.0779,1.0708,1.0708,1.0708,0,1.1036,1.1017,1.0971,1.0964,1.0948,1.0895,1.0896,1.0875,1.0832,1.0822,1.0803,1.0763,1.0735,1.0727,1.0738,1.0726,1.0725,1.071,1.0755,1.076,1.0765,1.0778,1.0784,1.0711,1.0711,1.0711,1.071,0,1.1073,1.1061,1.1067,1.1028,1.1013,1.101,1.0963,1.0953,1.0924,1.0893,1.0883,1.0847,1.0819,1.0815,1.0786,1.0803,1.0793,1.0765,1.0731,1.0777,1.0789,1.0794,1.0717,1.0715,1.0714,1.0713,0,0,1.1167,1.1103,1.1106,1.1087,1.1042,1.1031,1.1026,1.0998,1.0991,1.0964,1.0957,1.0933,1.0907,1.0888,1.0856,1.0857,1.0893,1.0829,1.0827,1.0842,1.091,1.0931,1.0938,1.0871,1.0872,1.0873,1.0913,0,1.1211,1.1199,1.1157,1.1157,1.1145,1.1094,1.1089,1.1061,1.1032,1.1017,1.0985,1.0969,1.0936,1.0924,1.0923,1.0889,1.0906,1.0886,1.0864,1.0864,1.0875,1.0945,1.0967,1.1007,1.0918,1.0918,1.0919,0,1.1261,1.1237,1.1236,1.1191,1.1185,1.1181,1.1153,1.114,1.1106,1.1085,1.1065,1.1029,1.102,1.0988,1.0974,1.0961,1.095,1.0932,1.0933,1.0929,1.0894,1.0942,1.1018,1.1025,1.0926,1.0925,1.0925,0,1.1329,1.1297,1.1292,1.1278,1.1225,1.1224,1.1202,1.1167,1.1153,1.1128,1.1119,1.1093,1.1079,1.106,1.1018,1.0999,1.1009,1.0974,1.0991,1.0992,1.0995,1.0996,1.1071,1.0989,1.0989,1.0989,1.0989,0,1.1383,1.1384,1.1322,1.1319,1.1319,1.1271,1.1272,1.1245,1.1214,1.1205,1.1159,1.1151,1.1096,1.1082,1.1049,1.1043,1.1037,1.1019,1.101,1.1023,1.1025,1.1015,1.1011,1.099,1.099,1.099,1.0989,0,1.1458,1.1417,1.1408,1.136,1.1347,1.1349,1.1307,1.1302,1.1271,1.1259,1.1254,1.1205,1.1185,1.1142,1.111,1.1088,1.109,1.1074,1.1102,1.1096,1.1116,1.1115,1.1186,1.1193,1.1108,1.1109,1.1109,0,1.1495,1.1495,1.1446,1.1437,1.1417,1.1403,1.1388,1.1341,1.1328,1.129,1.129,1.1267,1.1246,1.1218,1.1179,1.1155,1.1138,1.1164,1.1134,1.1147,1.1138,1.1138,1.1138,1.1171,1.1172,1.1173,1.1174,0,1.1565,1.1545,1.1526,1.1501,1.1486,1.1464,1.1439,1.1434,1.138,1.1368,1.1348,1.1332,1.13,1.1278,1.1248,1.1225,1.1191,1.1184,1.1187,1.12,1.1216,1.1207,1.112,1.1183,1.1182,1.1181,1.1181,1.118,1.1622,1.1619,1.1585,1.1566,1.1543,1.1521,1.1513,1.1482,1.1464,1.1435,1.1408,1.1391,1.1357,1.1313,1.1292,1.1277,1.126,1.1264,1.1265,1.1267,1.1272,1.1219,1.1272,1.1271,1.1271,1.1271,1.1271,0,1.1689,1.1664,1.1648,1.1615,1.16,1.157,1.1541,1.153,1.1515,1.1487,1.1468,1.1445,1.1423,1.1383,1.1357,1.1353,1.1337,1.1348,1.1348,1.1343,1.1289,1.1289,1.1362,1.1362,1.1362,1.1362,1.1362,1.1362,1.1722,1.1716,1.1692,1.1674,1.1649,1.1632,1.1618,1.1597,1.1574,1.1551,1.1533,1.1507,1.1473,1.1445,1.1424,1.1413,1.1405,1.1422,1.1405,1.1356,1.1347,1.1339,1.1339,1.1421,1.1421,1.146,1.1461,1.1461]},{"header":{"parameterUnit":"m.s-1","parameterCategory":1,"la1":30.2991,"la2":30.254,"lo1":-89.0895,"lo2":-89.0444,"dy":0.0017,"dx":0.0017,"nx":28,"ny":28,"refTime":"2025-07-31T03:00:00:Z","depth":0,"parameterNumber":3,"parameterNumberName":"V-component_of_WINDS"},"data":[0,0,0,0,0,0,0,0,0,0,0,0,0,0,0,0,0,0,0,0,0,0,0,0,0,0,0,0,0,0,0,0,0,0,0,0,0,0,0,0,0,0,0,0,0,0,0,0,0,0,0,0,0,0,0,0,0,0,1.3173,1.3173,0,1.3206,1.3207,1.3207,1.32,1.3199,1.3199,1.3198,1.3233,1.3235,1.3236,0,0,0,0,0,0,0,0,0,0,0,0,0,1.3103,1.3104,1.3173,1.3173,1.3174,1.3206,1.3207,1.3207,1.32,1.3199,1.3198,1.3198,1.3233,1.3234,1.3236,0,0,0,0,0,0,0,0,0,0,0,0,0,1.3134,1.3104,1.3173,1.3174,1.3174,1.3206,1.3207,1.3207,1.32,1.3199,1.3198,1.3197,1.3232,1.3234,1.3236,1.3269,0,0,1.3243,1.3244,0,0,0,0,0,0,0,0,1.3133,1.3137,1.3173,1.3174,1.3174,1.3198,1.3195,1.3228,1.32,1.319,1.3198,1.3197,1.3222,1.3225,1.3234,1.3271,1.3272,1.3244,1.3245,1.3246,1.3247,0,0,0,0,0,0,0,1.313,1.3135,1.3186,1.3174,1.3175,1.3173,1.3176,1.3201,1.3211,1.3191,1.3191,1.3195,1.3222,1.3231,1.3234,1.3273,1.3244,1.3246,1.3247,1.3248,1.3339,1.334,0,0,0,0,0,0,1.3128,1.3134,1.3185,1.3187,1.3151,1.3175,1.3179,1.3191,1.3211,1.3213,1.3195,1.3194,1.3228,1.3232,1.3236,1.3275,1.3246,1.3248,1.3249,1.3338,1.3339,1.334,0,0,0,0,0,0,1.3126,1.3132,1.3184,1.316,1.3167,1.3177,1.3191,1.3192,1.3202,1.3214,1.3216,1.3203,1.3227,1.3232,1.3261,1.3276,1.3249,1.3251,1.3336,1.3338,1.3339,1.3354,0,0,0,0,0,0,1.3124,1.3132,1.3144,1.3161,1.3168,1.3208,1.3192,1.3194,1.3205,1.3204,1.3222,1.3224,1.3227,1.3257,1.3263,1.3279,1.3253,1.3335,1.3337,1.3339,1.3353,1.3356,1.3359,0,0,0,0,0,1.3122,1.3148,1.3145,1.3151,1.3184,1.3209,1.3213,1.3217,1.3207,1.3219,1.3227,1.3223,1.3274,1.326,1.3267,1.3283,1.3334,1.3336,1.3339,1.3351,1.3356,1.3359,0,0,0,0,0,0,1.3133,1.315,1.3147,1.3179,1.3193,1.3208,1.3224,1.3221,1.3238,1.3236,1.324,1.3244,1.3273,1.3281,1.3266,1.3316,1.3302,1.3306,1.331,1.3314,1.3317,1.3315,1.3255,0,0,0,0,0,1.3139,1.3159,1.3172,1.3199,1.3206,1.3214,1.3225,1.3226,1.324,1.3246,1.3256,1.3271,1.329,1.3302,1.3321,1.3354,1.3357,1.3368,1.3372,1.3374,1.3378,1.3395,1.34,1.3348,1.3348,1.3348,0,0,1.3153,1.3164,1.3176,1.3201,1.3212,1.3232,1.3219,1.324,1.3255,1.325,1.3277,1.3285,1.3301,1.3332,1.3346,1.334,1.3393,1.3377,1.3379,1.3381,1.3398,1.3403,1.3408,1.3349,1.3349,1.3349,0,0,1.3186,1.3197,1.322,1.3231,1.3247,1.3253,1.3258,1.3274,1.3279,1.3306,1.3302,1.332,1.3353,1.3364,1.3375,1.3412,1.3409,1.3418,1.3436,1.3453,1.3457,1.3461,1.3474,1.3479,1.3421,1.3421,1.3421,0,1.3201,1.323,1.3233,1.3254,1.3265,1.3261,1.3285,1.3295,1.3317,1.3325,1.3317,1.3358,1.3369,1.3402,1.3411,1.342,1.3426,1.3416,1.3457,1.346,1.3464,1.3476,1.3481,1.3422,1.3422,1.3422,1.3422,0,1.3247,1.3267,1.3284,1.3304,1.3317,1.334,1.3346,1.3359,1.3359,1.3365,1.3392,1.3405,1.3426,1.3434,1.3434,1.3467,1.3462,1.3456,1.3442,1.347,1.3482,1.3487,1.3424,1.3423,1.3423,1.3423,0,0,1.3289,1.331,1.3316,1.3325,1.3343,1.3359,1.3381,1.34,1.3411,1.3426,1.3445,1.3473,1.3466,1.3478,1.348,1.3495,1.3523,1.3486,1.3487,1.3493,1.356,1.3565,1.357,1.3521,1.3522,1.3523,1.3559,0,1.3324,1.3363,1.3366,1.3401,1.342,1.3416,1.3435,1.3448,1.3454,1.3471,1.3477,1.3497,1.3487,1.3494,1.3509,1.3517,1.3537,1.3514,1.3539,1.354,1.3535,1.3577,1.3582,1.3615,1.3563,1.3564,1.3565,0,1.3371,1.3387,1.3423,1.3438,1.3446,1.3463,1.3481,1.3497,1.3511,1.3515,1.3527,1.3527,1.355,1.3535,1.3567,1.3551,1.3561,1.3566,1.3568,1.357,1.3554,1.358,1.3626,1.3631,1.3572,1.3572,1.3571,0,1.3398,1.3428,1.3454,1.3462,1.3479,1.3492,1.3499,1.3513,1.3524,1.354,1.3548,1.3566,1.3576,1.3591,1.3595,1.3584,1.3626,1.3612,1.363,1.3629,1.3639,1.3638,1.3686,1.3645,1.3645,1.3645,1.3645,0,1.3437,1.346,1.3466,1.3482,1.3507,1.351,1.3535,1.3542,1.3554,1.3571,1.3569,1.3586,1.359,1.3608,1.3611,1.3637,1.3641,1.3645,1.3645,1.3645,1.3644,1.3651,1.3649,1.3647,1.3646,1.3646,1.3646,0,1.3471,1.3477,1.3505,1.3519,1.3523,1.354,1.3552,1.3568,1.3573,1.3595,1.36,1.3609,1.3629,1.3635,1.3659,1.3662,1.3691,1.369,1.3686,1.3686,1.3703,1.3702,1.3758,1.3765,1.372,1.372,1.372,0,1.3496,1.3513,1.3529,1.354,1.3548,1.3566,1.3578,1.3581,1.3593,1.361,1.3624,1.3643,1.3659,1.3692,1.37,1.3719,1.3718,1.3736,1.3721,1.3719,1.3718,1.3717,1.3718,1.3739,1.374,1.374,1.374,0,1.3539,1.354,1.3557,1.3574,1.3588,1.3602,1.3616,1.3625,1.363,1.3644,1.3664,1.3676,1.3701,1.372,1.3739,1.3747,1.3745,1.3745,1.375,1.375,1.3747,1.3748,1.3694,1.3744,1.3744,1.3743,1.3743,1.3743,1.3569,1.3584,1.3597,1.3615,1.3626,1.3638,1.3653,1.366,1.3677,1.3697,1.3698,1.3719,1.3733,1.3758,1.3767,1.3784,1.3779,1.3786,1.3788,1.379,1.3791,1.3744,1.3788,1.3788,1.3788,1.3787,1.3787,0,1.3611,1.3619,1.3636,1.3655,1.3669,1.3665,1.368,1.3692,1.3711,1.3724,1.3739,1.3762,1.3781,1.3791,1.381,1.3822,1.3821,1.3827,1.3826,1.3828,1.3795,1.3788,1.3827,1.3827,1.3827,1.3827,1.3827,1.3827,1.3635,1.366,1.3663,1.3693,1.3701,1.3722,1.3731,1.3742,1.3752,1.3778,1.3793,1.38,1.3811,1.3831,1.3848,1.385,1.3857,1.3863,1.3865,1.3834,1.383,1.3826,1.382,1.3865,1.3865,1.3897,1.3897,1.3897]}]]